date,time,SUV Intensity [MED/Hr],UV Index,Daily total [MED],Since Last [MED]
23/02/2022,00:05:09,0.000,0.0,0.0,0.0
23/02/2022,00:05:59,-0.001,0.0,0.0,0.0
23/02/2022,00:07:00,0.000,0.0,0.0,0.0
23/02/2022,00:07:59,0.000,0.0,0.0,0.0
23/02/2022,00:09:00,0.000,0.0,0.0,0.0
23/02/2022,00:10:00,0.000,0.0,0.0,0.0
23/02/2022,00:10:59,-0.000,0.0,0.0,0.0
23/02/2022,00:12:00,0.000,0.0,0.0,0.0
23/02/2022,00:13:00,-0.000,0.0,0.0,0.0
23/02/2022,00:13:59,0.000,0.0,0.0,0.0
23/02/2022,00:14:59,-0.001,0.0,0.0,0.0
23/02/2022,00:16:00,0.000,0.0,0.0,0.0
23/02/2022,00:17:00,0.000,0.0,0.0,0.0
23/02/2022,00:18:00,0.000,0.0,0.0,0.0
23/02/2022,00:18:59,-0.001,0.0,0.0,0.0
23/02/2022,00:19:59,0.000,0.0,0.0,0.0
23/02/2022,00:21:00,0.000,0.0,0.0,0.0
23/02/2022,00:22:00,0.000,0.0,0.0,0.0
23/02/2022,00:23:00,0.001,0.0,0.0,0.0
23/02/2022,00:24:00,-0.000,0.0,0.0,0.0
23/02/2022,00:24:59,0.000,0.0,0.0,0.0
23/02/2022,00:25:59,0.000,0.0,0.0,0.0
23/02/2022,00:27:00,0.000,0.0,0.0,0.0
23/02/2022,00:28:08,-0.000,0.0,0.0,0.0
23/02/2022,00:29:08,0.000,0.0,0.0,0.0
23/02/2022,00:30:00,-0.000,0.0,0.0,0.0
23/02/2022,00:30:59,-0.001,0.0,0.0,0.0
23/02/2022,00:32:00,0.000,0.0,0.0,0.0
23/02/2022,00:33:00,0.000,0.0,0.0,0.0
23/02/2022,00:34:01,0.000,0.0,0.0,0.0
23/02/2022,00:34:59,-0.001,0.0,0.0,0.0
23/02/2022,00:36:00,0.000,0.0,0.0,0.0
23/02/2022,00:37:00,-0.000,0.0,0.0,0.0
23/02/2022,00:38:00,0.001,0.0,0.0,0.0
23/02/2022,00:39:08,0.000,0.0,0.0,0.0
23/02/2022,00:39:59,-0.000,0.0,0.0,0.0
23/02/2022,00:40:59,0.000,0.0,0.0,0.0
23/02/2022,00:42:00,0.000,0.0,0.0,0.0
23/02/2022,00:43:00,0.000,0.0,0.0,0.0
23/02/2022,00:44:00,0.000,0.0,0.0,0.0
23/02/2022,00:45:08,0.000,0.0,0.0,0.0
23/02/2022,00:45:59,0.000,0.0,0.0,0.0
23/02/2022,00:47:00,-0.001,0.0,0.0,0.0
23/02/2022,00:48:08,0.000,0.0,0.0,0.0
23/02/2022,00:48:59,0.000,0.0,0.0,0.0
23/02/2022,00:50:00,0.000,0.0,0.0,0.0
23/02/2022,00:51:00,-0.001,0.0,0.0,0.0
23/02/2022,00:51:59,0.000,0.0,0.0,0.0
23/02/2022,00:53:00,0.000,0.0,0.0,0.0
23/02/2022,00:54:00,0.000,0.0,0.0,0.0
23/02/2022,00:55:00,0.000,0.0,0.0,0.0
23/02/2022,00:55:59,0.000,0.0,0.0,0.0
23/02/2022,00:57:00,0.000,0.0,0.0,0.0
23/02/2022,00:58:08,0.001,0.0,0.0,0.0
23/02/2022,00:59:00,0.000,0.0,0.0,0.0
23/02/2022,01:00:00,0.000,0.0,0.0,0.0
23/02/2022,01:01:00,0.001,0.0,0.0,0.0
23/02/2022,01:02:00,-0.000,0.0,0.0,0.0
23/02/2022,01:03:00,0.000,0.0,0.0,0.0
23/02/2022,01:03:59,-0.000,0.0,0.0,0.0
23/02/2022,01:05:00,0.000,0.0,0.0,0.0
23/02/2022,01:06:00,0.001,0.0,0.0,0.0
23/02/2022,01:07:00,0.000,0.0,0.0,0.0
23/02/2022,01:07:59,0.000,0.0,0.0,0.0
23/02/2022,01:09:00,-0.001,0.0,0.0,0.0
23/02/2022,01:09:59,-0.000,0.0,0.0,0.0
23/02/2022,01:11:00,-0.000,0.0,0.0,0.0
23/02/2022,01:12:08,-0.000,0.0,0.0,0.0
23/02/2022,01:13:00,0.001,0.0,0.0,0.0
23/02/2022,01:14:00,0.001,0.0,0.0,0.0
23/02/2022,01:14:59,0.000,0.0,0.0,0.0
23/02/2022,01:16:00,0.000,0.0,0.0,0.0
23/02/2022,01:17:00,0.001,0.0,0.0,0.0
23/02/2022,01:18:00,0.000,0.0,0.0,0.0
23/02/2022,01:19:00,0.000,0.0,0.0,0.0
23/02/2022,01:19:59,0.000,0.0,0.0,0.0
23/02/2022,01:21:00,0.000,0.0,0.0,0.0
23/02/2022,01:22:09,0.001,0.0,0.0,0.0
23/02/2022,01:23:00,0.000,0.0,0.0,0.0
23/02/2022,01:24:00,0.001,0.0,0.0,0.0
23/02/2022,01:25:00,0.000,0.0,0.0,0.0
23/02/2022,01:25:59,0.001,0.0,0.0,0.0
23/02/2022,01:26:59,0.000,0.0,0.0,0.0
23/02/2022,01:27:59,-0.000,0.0,0.0,0.0
23/02/2022,01:29:00,0.000,0.0,0.0,0.0
23/02/2022,01:30:00,0.000,0.0,0.0,0.0
23/02/2022,01:31:00,0.000,0.0,0.0,0.0
23/02/2022,01:31:59,0.000,0.0,0.0,0.0
23/02/2022,01:33:00,0.000,0.0,0.0,0.0
23/02/2022,01:34:00,-0.000,0.0,0.0,0.0
23/02/2022,01:35:08,0.001,0.0,0.0,0.0
23/02/2022,01:35:58,0.000,0.0,0.0,0.0
23/02/2022,01:37:00,-0.001,0.0,0.0,0.0
23/02/2022,01:38:08,0.000,0.0,0.0,0.0
23/02/2022,01:39:00,0.000,0.0,0.0,0.0
23/02/2022,01:40:00,0.001,0.0,0.0,0.0
23/02/2022,01:41:08,0.000,0.0,0.0,0.0
23/02/2022,01:42:00,0.000,0.0,0.0,0.0
23/02/2022,01:43:00,0.000,0.0,0.0,0.0
23/02/2022,01:44:00,0.000,0.0,0.0,0.0
23/02/2022,01:45:00,0.000,0.0,0.0,0.0
23/02/2022,01:45:59,0.001,0.0,0.0,0.0
23/02/2022,01:47:00,-0.000,0.0,0.0,0.0
23/02/2022,01:48:00,0.000,0.0,0.0,0.0
23/02/2022,01:49:00,0.000,0.0,0.0,0.0
23/02/2022,01:49:59,0.000,0.0,0.0,0.0
23/02/2022,01:51:08,0.000,0.0,0.0,0.0
23/02/2022,01:52:01,0.001,0.0,0.0,0.0
23/02/2022,01:53:00,0.000,0.0,0.0,0.0
23/02/2022,01:54:00,0.000,0.0,0.0,0.0
23/02/2022,01:55:00,0.000,0.0,0.0,0.0
23/02/2022,01:56:00,0.001,0.0,0.0,0.0
23/02/2022,01:57:00,0.001,0.0,0.0,0.0
23/02/2022,01:58:00,0.001,0.0,0.0,0.0
23/02/2022,01:59:00,0.000,0.0,0.0,0.0
23/02/2022,02:00:01,-0.000,0.0,0.0,0.0
23/02/2022,02:01:00,0.000,0.0,0.0,0.0
23/02/2022,02:01:59,-0.000,0.0,0.0,0.0
23/02/2022,02:03:00,-0.000,0.0,0.0,0.0
23/02/2022,02:04:00,0.001,0.0,0.0,0.0
23/02/2022,02:05:00,0.000,0.0,0.0,0.0
23/02/2022,02:06:00,-0.001,0.0,0.0,0.0
23/02/2022,02:07:00,-0.001,0.0,0.0,0.0
23/02/2022,02:08:00,0.001,0.0,0.0,0.0
23/02/2022,02:09:00,0.001,0.0,0.0,0.0
23/02/2022,02:10:00,0.000,0.0,0.0,0.0
23/02/2022,02:11:08,0.000,0.0,0.0,0.0
23/02/2022,02:12:00,0.000,0.0,0.0,0.0
23/02/2022,02:12:51,0.000,0.0,0.0,0.0
23/02/2022,02:14:01,0.000,0.0,0.0,0.0
23/02/2022,02:15:08,0.000,0.0,0.0,0.0
23/02/2022,02:15:59,0.001,0.0,0.0,0.0
23/02/2022,02:17:00,0.000,0.0,0.0,0.0
23/02/2022,02:18:08,0.001,0.0,0.0,0.0
23/02/2022,02:18:59,0.000,0.0,0.0,0.0
23/02/2022,02:20:00,0.000,0.0,0.0,0.0
23/02/2022,02:21:00,0.000,0.0,0.0,0.0
23/02/2022,02:22:00,0.000,0.0,0.0,0.0
23/02/2022,02:23:00,0.000,0.0,0.0,0.0
23/02/2022,02:23:59,-0.000,0.0,0.0,0.0
23/02/2022,02:25:10,0.000,0.0,0.0,0.0
23/02/2022,02:25:59,0.000,0.0,0.0,0.0
23/02/2022,02:27:00,0.000,0.0,0.0,0.0
23/02/2022,02:28:00,0.000,0.0,0.0,0.0
23/02/2022,02:29:00,0.000,0.0,0.0,0.0
23/02/2022,02:30:00,0.000,0.0,0.0,0.0
23/02/2022,02:31:00,0.001,0.0,0.0,0.0
23/02/2022,02:32:00,0.000,0.0,0.0,0.0
23/02/2022,02:33:00,0.001,0.0,0.0,0.0
23/02/2022,02:34:00,0.001,0.0,0.0,0.0
23/02/2022,02:35:00,-0.001,0.0,0.0,0.0
23/02/2022,02:36:00,0.000,0.0,0.0,0.0
23/02/2022,02:36:59,-0.000,0.0,0.0,0.0
23/02/2022,02:38:08,0.000,0.0,0.0,0.0
23/02/2022,02:39:00,0.000,0.0,0.0,0.0
23/02/2022,02:40:00,0.000,0.0,0.0,0.0
23/02/2022,02:40:59,0.000,0.0,0.0,0.0
23/02/2022,02:42:00,-0.000,0.0,0.0,0.0
23/02/2022,02:43:00,0.000,0.0,0.0,0.0
23/02/2022,02:44:00,0.000,0.0,0.0,0.0
23/02/2022,02:45:00,0.000,0.0,0.0,0.0
23/02/2022,02:46:00,0.000,0.0,0.0,0.0
23/02/2022,02:47:00,-0.000,0.0,0.0,0.0
23/02/2022,02:48:02,0.001,0.0,0.0,0.0
23/02/2022,02:49:01,0.000,0.0,0.0,0.0
23/02/2022,02:50:00,0.000,0.0,0.0,0.0
23/02/2022,02:51:08,0.001,0.0,0.0,0.0
23/02/2022,02:52:08,0.000,0.0,0.0,0.0
23/02/2022,02:53:00,0.000,0.0,0.0,0.0
23/02/2022,02:54:00,0.000,0.0,0.0,0.0
23/02/2022,02:55:01,-0.000,0.0,0.0,0.0
23/02/2022,02:56:00,0.000,0.0,0.0,0.0
23/02/2022,02:57:00,0.000,0.0,0.0,0.0
23/02/2022,02:58:00,0.001,0.0,0.0,0.0
23/02/2022,02:59:08,0.000,0.0,0.0,0.0
23/02/2022,03:00:00,0.001,0.0,0.0,0.0
23/02/2022,03:01:03,0.000,0.0,0.0,0.0
23/02/2022,03:02:00,-0.001,0.0,0.0,0.0
23/02/2022,03:03:00,0.000,0.0,0.0,0.0
23/02/2022,03:04:00,0.001,0.0,0.0,0.0
23/02/2022,03:05:00,-0.001,0.0,0.0,0.0
23/02/2022,03:06:00,0.000,0.0,0.0,0.0
23/02/2022,03:07:00,-0.000,0.0,0.0,0.0
23/02/2022,03:08:00,0.000,0.0,0.0,0.0
23/02/2022,03:09:08,0.000,0.0,0.0,0.0
23/02/2022,03:10:00,0.000,0.0,0.0,0.0
23/02/2022,03:11:00,-0.000,0.0,0.0,0.0
23/02/2022,03:11:59,0.000,0.0,0.0,0.0
23/02/2022,03:13:00,-0.001,0.0,0.0,0.0
23/02/2022,03:14:00,0.001,0.0,0.0,0.0
23/02/2022,03:15:00,0.000,0.0,0.0,0.0
23/02/2022,03:16:00,0.000,0.0,0.0,0.0
23/02/2022,03:17:00,0.000,0.0,0.0,0.0
23/02/2022,03:18:00,0.000,0.0,0.0,0.0
23/02/2022,03:19:00,-0.001,0.0,0.0,0.0
23/02/2022,03:20:00,0.000,0.0,0.0,0.0
23/02/2022,03:21:00,-0.000,0.0,0.0,0.0
23/02/2022,03:22:00,0.000,0.0,0.0,0.0
23/02/2022,03:23:00,0.001,0.0,0.0,0.0
23/02/2022,03:24:00,-0.001,0.0,0.0,0.0
23/02/2022,03:25:09,0.000,0.0,0.0,0.0
23/02/2022,03:26:00,0.000,0.0,0.0,0.0
23/02/2022,03:27:00,-0.000,0.0,0.0,0.0
23/02/2022,03:28:00,0.000,0.0,0.0,0.0
23/02/2022,03:29:00,0.000,0.0,0.0,0.0
23/02/2022,03:30:00,0.000,0.0,0.0,0.0
23/02/2022,03:31:00,0.000,0.0,0.0,0.0
23/02/2022,03:32:00,0.001,0.0,0.0,0.0
23/02/2022,03:33:00,0.001,0.0,0.0,0.0
23/02/2022,03:34:01,0.000,0.0,0.0,0.0
23/02/2022,03:35:00,0.001,0.0,0.0,0.0
23/02/2022,03:36:04,0.000,0.0,0.0,0.0
23/02/2022,03:37:00,0.000,0.0,0.0,0.0
23/02/2022,03:38:00,0.000,0.0,0.0,0.0
23/02/2022,03:39:00,0.000,0.0,0.0,0.0
23/02/2022,03:39:59,-0.000,0.0,0.0,0.0
23/02/2022,03:41:00,0.000,0.0,0.0,0.0
23/02/2022,03:42:00,0.001,0.0,0.0,0.0
23/02/2022,03:43:08,-0.000,0.0,0.0,0.0
23/02/2022,03:44:00,0.000,0.0,0.0,0.0
23/02/2022,03:45:00,0.000,0.0,0.0,0.0
23/02/2022,03:46:00,0.000,0.0,0.0,0.0
23/02/2022,03:47:00,0.001,0.0,0.0,0.0
23/02/2022,03:48:00,-0.000,0.0,0.0,0.0
23/02/2022,03:49:01,0.001,0.0,0.0,0.0
23/02/2022,03:50:00,0.001,0.0,0.0,0.0
23/02/2022,03:51:01,0.001,0.0,0.0,0.0
23/02/2022,03:52:00,-0.001,0.0,0.0,0.0
23/02/2022,03:53:00,0.000,0.0,0.0,0.0
23/02/2022,03:54:00,0.001,0.0,0.0,0.0
23/02/2022,03:54:59,0.001,0.0,0.0,0.0
23/02/2022,03:56:08,0.001,0.0,0.0,0.0
23/02/2022,03:57:00,-0.001,0.0,0.0,0.0
23/02/2022,03:58:01,0.001,0.0,0.0,0.0
23/02/2022,03:59:00,0.000,0.0,0.0,0.0
23/02/2022,04:00:00,-0.001,0.0,0.0,0.0
23/02/2022,04:01:00,0.001,0.0,0.0,0.0
23/02/2022,04:02:00,0.000,0.0,0.0,0.0
23/02/2022,04:03:00,-0.000,0.0,0.0,0.0
23/02/2022,04:04:00,0.001,0.0,0.0,0.0
23/02/2022,04:05:00,0.000,0.0,0.0,0.0
23/02/2022,04:06:09,0.000,0.0,0.0,0.0
23/02/2022,04:06:59,0.000,0.0,0.0,0.0
23/02/2022,04:08:00,0.000,0.0,0.0,0.0
23/02/2022,04:09:00,-0.001,0.0,0.0,0.0
23/02/2022,04:10:00,0.001,0.0,0.0,0.0
23/02/2022,04:11:00,0.000,0.0,0.0,0.0
23/02/2022,04:11:53,0.001,0.0,0.0,0.0
23/02/2022,04:13:01,0.001,0.0,0.0,0.0
23/02/2022,04:14:08,-0.000,0.0,0.0,0.0
23/02/2022,04:14:59,0.000,0.0,0.0,0.0
23/02/2022,04:16:09,0.000,0.0,0.0,0.0
23/02/2022,04:17:09,0.001,0.0,0.0,0.0
23/02/2022,04:17:59,0.001,0.0,0.0,0.0
23/02/2022,04:19:00,0.001,0.0,0.0,0.0
23/02/2022,04:20:00,-0.000,0.0,0.0,0.0
23/02/2022,04:21:00,0.000,0.0,0.0,0.0
23/02/2022,04:22:00,-0.000,0.0,0.0,0.0
23/02/2022,04:23:00,0.000,0.0,0.0,0.0
23/02/2022,04:24:08,0.000,0.0,0.0,0.0
23/02/2022,04:25:00,0.000,0.0,0.0,0.0
23/02/2022,04:26:00,0.000,0.0,0.0,0.0
23/02/2022,04:27:08,0.000,0.0,0.0,0.0
23/02/2022,04:28:02,0.001,0.0,0.0,0.0
23/02/2022,04:29:00,0.001,0.0,0.0,0.0
23/02/2022,04:30:08,0.001,0.0,0.0,0.0
23/02/2022,04:31:00,0.001,0.0,0.0,0.0
23/02/2022,04:32:00,0.000,0.0,0.0,0.0
23/02/2022,04:33:00,0.001,0.0,0.0,0.0
23/02/2022,04:34:00,0.000,0.0,0.0,0.0
23/02/2022,04:35:00,-0.000,0.0,0.0,0.0
23/02/2022,04:36:00,0.000,0.0,0.0,0.0
23/02/2022,04:37:08,0.001,0.0,0.0,0.0
23/02/2022,04:38:00,-0.000,0.0,0.0,0.0
23/02/2022,04:39:00,0.001,0.0,0.0,0.0
23/02/2022,04:40:00,0.000,0.0,0.0,0.0
23/02/2022,04:41:00,-0.001,0.0,0.0,0.0
23/02/2022,04:42:00,0.000,0.0,0.0,0.0
23/02/2022,04:43:01,0.000,0.0,0.0,0.0
23/02/2022,04:44:00,0.000,0.0,0.0,0.0
23/02/2022,04:45:00,0.001,0.0,0.0,0.0
23/02/2022,04:46:00,0.001,0.0,0.0,0.0
23/02/2022,04:47:09,0.000,0.0,0.0,0.0
23/02/2022,04:48:07,-0.001,0.0,0.0,0.0
23/02/2022,04:49:00,0.000,0.0,0.0,0.0
23/02/2022,04:50:00,0.000,0.0,0.0,0.0
23/02/2022,04:51:00,-0.001,0.0,0.0,0.0
23/02/2022,04:52:00,0.001,0.0,0.0,0.0
23/02/2022,04:53:00,0.000,0.0,0.0,0.0
23/02/2022,04:54:00,0.000,0.0,0.0,0.0
23/02/2022,04:55:00,0.000,0.0,0.0,0.0
23/02/2022,04:56:00,0.000,0.0,0.0,0.0
23/02/2022,04:57:00,0.000,0.0,0.0,0.0
23/02/2022,04:58:00,0.000,0.0,0.0,0.0
23/02/2022,04:59:00,0.000,0.0,0.0,0.0
23/02/2022,05:00:00,0.001,0.0,0.0,0.0
23/02/2022,05:01:08,0.000,0.0,0.0,0.0
23/02/2022,05:02:00,0.001,0.0,0.0,0.0
23/02/2022,05:03:00,0.001,0.0,0.0,0.0
23/02/2022,05:04:00,0.001,0.0,0.0,0.0
23/02/2022,05:05:00,0.001,0.0,0.0,0.0
23/02/2022,05:06:00,-0.000,0.0,0.0,0.0
23/02/2022,05:07:01,0.001,0.0,0.0,0.0
23/02/2022,05:08:00,0.000,0.0,0.0,0.0
23/02/2022,05:09:00,0.001,0.0,0.0,0.0
23/02/2022,05:10:00,0.001,0.0,0.0,0.0
23/02/2022,05:11:09,0.001,0.0,0.0,0.0
23/02/2022,05:11:59,0.001,0.0,0.0,0.0
23/02/2022,05:13:00,0.001,0.0,0.0,0.0
23/02/2022,05:14:00,0.001,0.0,0.0,0.0
23/02/2022,05:15:00,0.000,0.0,0.0,0.0
23/02/2022,05:16:00,0.001,0.0,0.0,0.0
23/02/2022,05:17:01,0.001,0.0,0.0,0.0
23/02/2022,05:18:01,0.001,0.0,0.0,0.0
23/02/2022,05:19:01,0.000,0.0,0.0,0.0
23/02/2022,05:20:01,0.001,0.0,0.0,0.0
23/02/2022,05:21:08,0.001,0.0,0.0,0.0
23/02/2022,05:22:00,0.001,0.0,0.0,0.0
23/02/2022,05:23:00,0.000,0.0,0.0,0.0
23/02/2022,05:24:00,0.002,0.0,0.0,0.0
23/02/2022,05:25:00,-0.000,0.0,0.0,0.0
23/02/2022,05:26:00,0.000,0.0,0.0,0.0
23/02/2022,05:27:00,-0.000,0.0,0.0,0.0
23/02/2022,05:28:01,0.001,0.0,0.0,0.0
23/02/2022,05:29:09,0.001,0.0,0.0,0.0
23/02/2022,05:30:00,0.000,0.0,0.0,0.0
23/02/2022,05:31:00,0.001,0.0,0.0,0.0
23/02/2022,05:32:08,0.001,0.0,0.0,0.0
23/02/2022,05:33:01,-0.001,0.0,0.0,0.0
23/02/2022,05:34:00,0.000,0.0,0.0,0.0
23/02/2022,05:35:09,0.001,0.0,0.0,0.0
23/02/2022,05:35:59,-0.000,0.0,0.0,0.0
23/02/2022,05:37:01,0.001,0.0,0.0,0.0
23/02/2022,05:38:00,0.001,0.0,0.0,0.0
23/02/2022,05:39:00,0.001,0.0,0.0,0.0
23/02/2022,05:40:02,0.001,0.0,0.0,0.0
23/02/2022,05:41:00,0.001,0.0,0.0,0.0
23/02/2022,05:42:00,0.000,0.0,0.0,0.0
23/02/2022,05:43:00,0.000,0.0,0.0,0.0
23/02/2022,05:44:00,0.001,0.0,0.0,0.0
23/02/2022,05:45:00,0.001,0.0,0.0,0.0
23/02/2022,05:46:01,0.001,0.0,0.0,0.0
23/02/2022,05:47:00,0.002,0.0,0.0,0.0
23/02/2022,05:48:00,0.000,0.0,0.0,0.0
23/02/2022,05:49:00,-0.000,0.0,0.0,0.0
23/02/2022,05:50:00,0.001,0.0,0.0,0.0
23/02/2022,05:51:01,0.001,0.0,0.0,0.0
23/02/2022,05:52:00,0.001,0.0,0.0,0.0
23/02/2022,05:53:00,0.001,0.0,0.0,0.0
23/02/2022,05:54:00,0.001,0.0,0.0,0.0
23/02/2022,05:55:00,0.001,0.0,0.0,0.0
23/02/2022,05:56:00,0.001,0.0,0.0,0.0
23/02/2022,05:57:02,0.001,0.0,0.0,0.0
23/02/2022,05:58:00,0.001,0.0,0.0,0.0
23/02/2022,05:59:02,0.001,0.0,0.0,0.0
23/02/2022,06:00:09,0.001,0.0,0.0,0.0
23/02/2022,06:01:00,0.000,0.0,0.0,0.0
23/02/2022,06:02:00,0.001,0.0,0.0,0.0
23/02/2022,06:03:01,0.000,0.0,0.0,0.0
23/02/2022,06:04:02,0.001,0.0,0.0,0.0
23/02/2022,06:05:00,0.001,0.0,0.0,0.0
23/02/2022,06:06:00,0.001,0.0,0.0,0.0
23/02/2022,06:07:00,0.000,0.0,0.0,0.0
23/02/2022,06:08:00,0.000,0.0,0.0,0.0
23/02/2022,06:09:00,0.000,0.0,0.0,0.0
23/02/2022,06:10:09,0.002,0.0,0.0,0.0
23/02/2022,06:10:59,0.001,0.0,0.0,0.0
23/02/2022,06:12:01,0.002,0.0,0.0,0.0
23/02/2022,06:13:09,0.001,0.0,0.0,0.0
23/02/2022,06:14:00,0.001,0.0,0.0,0.0
23/02/2022,06:15:00,0.000,0.0,0.0,0.0
23/02/2022,06:17:01,0.001,0.0,0.0,0.0
23/02/2022,06:19:01,0.001,0.0,0.0,0.0
23/02/2022,06:21:01,0.001,0.0,0.0,0.0
23/02/2022,06:23:01,0.000,0.0,0.0,0.0
23/02/2022,06:24:00,0.001,0.0,0.0,0.0
23/02/2022,06:25:00,0.001,0.0,0.0,0.0
23/02/2022,06:26:00,0.001,0.0,0.0,0.0
23/02/2022,06:27:01,0.001,0.0,0.0,0.0
23/02/2022,06:28:01,0.002,0.0,0.0,0.0
23/02/2022,06:29:01,0.000,0.0,0.0,0.0
23/02/2022,06:30:01,0.001,0.0,0.0,0.0
23/02/2022,06:31:00,0.001,0.0,0.0,0.0
23/02/2022,06:32:00,0.001,0.0,0.0,0.0
23/02/2022,06:33:00,0.001,0.0,0.0,0.0
23/02/2022,06:34:01,0.001,0.0,0.0,0.0
23/02/2022,06:35:00,0.001,0.0,0.0,0.0
23/02/2022,06:36:01,0.001,0.0,0.0,0.0
23/02/2022,06:37:00,0.001,0.0,0.0,0.0
23/02/2022,06:38:08,0.001,0.0,0.0,0.0
23/02/2022,06:38:47,0.001,0.0,0.0,0.0
23/02/2022,06:40:00,0.001,0.0,0.0,0.0
23/02/2022,06:41:00,0.001,0.0,0.0,0.0
23/02/2022,06:42:00,0.001,0.0,0.0,0.0
23/02/2022,06:43:01,0.001,0.0,0.0,0.0
23/02/2022,06:44:09,0.001,0.0,0.0,0.0
23/02/2022,06:45:00,0.002,0.0,0.0,0.0
23/02/2022,06:46:00,0.001,0.0,0.0,0.0
23/02/2022,06:47:00,0.001,0.0,0.0,0.0
23/02/2022,06:48:01,0.001,0.0,0.0,0.0
23/02/2022,06:49:01,0.001,0.0,0.0,0.0
23/02/2022,06:50:00,0.000,0.0,0.0,0.0
23/02/2022,06:51:00,0.001,0.0,0.0,0.0
23/02/2022,06:52:00,0.001,0.0,0.0,0.0
23/02/2022,06:53:02,0.001,0.0,0.0,0.0
23/02/2022,06:54:01,0.001,0.0,0.0,0.0
23/02/2022,06:55:00,0.002,0.0,0.0,0.0
23/02/2022,06:56:00,0.001,0.0,0.0,0.0
23/02/2022,06:57:00,0.002,0.0,0.0,0.0
23/02/2022,06:58:01,0.001,0.0,0.0,0.0
23/02/2022,06:59:09,0.002,0.0,0.0,0.0
23/02/2022,07:00:00,0.002,0.0,0.0,0.0
23/02/2022,07:01:00,0.002,0.0,0.0,0.0
23/02/2022,07:02:00,0.002,0.0,0.0,0.0
23/02/2022,07:03:00,0.002,0.0,0.0,0.0
23/02/2022,07:04:00,0.003,0.0,0.0,0.0
23/02/2022,07:05:00,0.003,0.0,0.0,0.0
23/02/2022,07:06:00,0.002,0.0,0.0,0.0
23/02/2022,07:07:00,0.003,0.0,0.0,0.0
23/02/2022,07:08:00,0.003,0.0,0.0,0.0
23/02/2022,07:09:08,0.004,0.0,0.0,0.0
23/02/2022,07:10:00,0.003,0.0,0.0,0.0
23/02/2022,07:11:00,0.004,0.0,0.0,0.0
23/02/2022,07:12:01,0.004,0.0,0.0,0.0
23/02/2022,07:13:00,0.003,0.0,0.0,0.0
23/02/2022,07:14:00,0.005,0.0,0.0,0.0
23/02/2022,07:15:00,0.005,0.0,0.0,0.0
23/02/2022,07:16:01,0.005,0.0,0.0,0.0
23/02/2022,07:17:01,0.005,0.0,0.0,0.0
23/02/2022,07:18:00,0.006,0.0,0.0,0.0
23/02/2022,07:19:09,0.006,0.0,0.0,0.0
23/02/2022,07:20:00,0.006,0.0,0.0,0.0
23/02/2022,07:21:00,0.006,0.0,0.0,0.0
23/02/2022,07:22:08,0.006,0.0,0.0,0.0
23/02/2022,07:23:00,0.007,0.0,0.0,0.0
23/02/2022,07:24:01,0.008,0.0,0.001,0.001
23/02/2022,07:25:00,0.008,0.0,0.001,0.0
23/02/2022,07:26:00,0.008,0.0,0.001,0.0
23/02/2022,07:27:00,0.008,0.0,0.001,0.0
23/02/2022,07:28:00,0.009,0.0,0.001,0.0
23/02/2022,07:29:01,0.009,0.0,0.001,0.0
23/02/2022,07:30:01,0.009,0.0,0.001,0.0
23/02/2022,07:31:01,0.010,0.0,0.002,0.001
23/02/2022,07:32:10,0.010,0.0,0.002,0.0
23/02/2022,07:33:08,0.011,0.0,0.002,0.0
23/02/2022,07:34:00,0.012,0.0,0.002,0.0
23/02/2022,07:35:00,0.012,0.0,0.002,0.0
23/02/2022,07:36:01,0.013,0.0,0.002,0.0
23/02/2022,07:37:09,0.013,0.0,0.003,0.001
23/02/2022,07:38:01,0.014,0.0,0.003,0.0
23/02/2022,07:39:00,0.013,0.0,0.003,0.0
23/02/2022,07:40:08,0.015,0.0,0.003,0.0
23/02/2022,07:41:01,0.015,0.0,0.004,0.001
23/02/2022,07:42:00,0.015,0.0,0.004,0.0
23/02/2022,07:43:01,0.016,0.0,0.004,0.0
23/02/2022,07:44:00,0.018,0.0,0.004,0.0
23/02/2022,07:45:00,0.018,0.0,0.005,0.001
23/02/2022,07:46:01,0.018,0.0,0.005,0.0
23/02/2022,07:47:01,0.019,0.0,0.005,0.0
23/02/2022,07:48:09,0.019,0.0,0.006,0.001
23/02/2022,07:49:01,0.020,0.0,0.006,0.0
23/02/2022,07:50:00,0.021,0.0,0.006,0.0
23/02/2022,07:51:01,0.021,0.0,0.007,0.001
23/02/2022,07:52:00,0.022,0.0,0.007,0.0
23/02/2022,07:53:00,0.023,0.0,0.007,0.0
23/02/2022,07:54:00,0.024,0.0,0.008,0.001
23/02/2022,07:55:01,0.025,0.0,0.008,0.0
23/02/2022,07:56:01,0.026,0.0,0.009,0.001
23/02/2022,07:57:01,0.026,0.0,0.009,0.0
23/02/2022,07:58:01,0.027,0.0,0.009,0.0
23/02/2022,07:59:00,0.029,0.0,0.01,0.001
23/02/2022,08:00:00,0.029,0.0,0.01,0.0
23/02/2022,08:01:09,0.030,0.0,0.011,0.001
23/02/2022,08:02:17,0.031,0.0,0.012,0.001
23/02/2022,08:04:01,0.033,0.0,0.012,0.0
23/02/2022,08:05:00,0.034,0.0,0.013,0.001
23/02/2022,08:06:00,0.035,0.0,0.014,0.001
23/02/2022,08:07:00,0.035,0.0,0.014,0.0
23/02/2022,08:08:01,0.037,0.0,0.015,0.001
23/02/2022,08:09:00,0.037,0.0,0.015,0.0
23/02/2022,08:10:00,0.039,0.0,0.016,0.001
23/02/2022,08:11:00,0.041,0.0,0.017,0.001
23/02/2022,08:12:01,0.041,0.0,0.017,0.0
23/02/2022,08:13:01,0.042,0.0,0.018,0.001
23/02/2022,08:14:00,0.043,0.0,0.019,0.001
23/02/2022,08:15:00,0.043,0.0,0.019,0.0
23/02/2022,08:16:01,0.042,0.0,0.02,0.001
23/02/2022,08:17:01,0.041,0.0,0.021,0.001
23/02/2022,08:18:00,0.039,0.0,0.022,0.001
23/02/2022,08:19:21,0.041,0.0,0.022,0.0
23/02/2022,08:21:01,0.045,0.0,0.024,0.002
23/02/2022,08:22:00,0.046,0.0,0.024,0.0
23/02/2022,08:23:00,0.048,0.0,0.025,0.001
23/02/2022,08:24:00,0.049,0.0,0.026,0.001
23/02/2022,08:25:01,0.050,0.0,0.027,0.001
23/02/2022,08:26:01,0.050,0.0,0.028,0.001
23/02/2022,08:27:00,0.052,0.0,0.028,0.0
23/02/2022,08:28:00,0.054,0.0,0.029,0.001
23/02/2022,08:29:08,0.056,0.0,0.03,0.001
23/02/2022,08:30:00,0.060,0.0,0.031,0.001
23/02/2022,08:31:00,0.061,0.0,0.032,0.001
23/02/2022,08:32:01,0.060,0.0,0.033,0.001
23/02/2022,08:33:01,0.061,0.0,0.034,0.001
23/02/2022,08:34:01,0.059,0.0,0.035,0.001
23/02/2022,08:35:01,0.059,0.0,0.036,0.001
23/02/2022,08:36:01,0.059,0.0,0.037,0.001
23/02/2022,08:37:00,0.061,0.0,0.038,0.001
23/02/2022,08:38:00,0.064,0.0,0.039,0.001
23/02/2022,08:39:00,0.065,0.0,0.04,0.001
23/02/2022,08:40:09,0.064,0.0,0.042,0.002
23/02/2022,08:41:01,0.063,0.0,0.042,0.0
23/02/2022,08:42:01,0.065,0.0,0.044,0.002
23/02/2022,08:43:10,0.066,0.0,0.045,0.001
23/02/2022,08:43:59,0.068,0.0,0.046,0.001
23/02/2022,08:45:00,0.069,0.0,0.047,0.001
23/02/2022,08:46:01,0.073,0.0,0.048,0.001
23/02/2022,08:47:01,0.074,0.0,0.049,0.001
23/02/2022,08:48:00,0.077,0.0,0.051,0.002
23/02/2022,08:49:00,0.078,0.0,0.052,0.001
23/02/2022,08:50:00,0.079,0.0,0.053,0.001
23/02/2022,08:51:00,0.079,0.0,0.054,0.001
23/02/2022,08:52:01,0.079,0.0,0.056,0.002
23/02/2022,08:53:01,0.082,0.0,0.057,0.001
23/02/2022,08:54:00,0.084,0.0,0.059,0.002
23/02/2022,08:55:01,0.085,0.0,0.06,0.001
23/02/2022,08:56:01,0.085,0.0,0.061,0.001
23/02/2022,08:57:01,0.085,0.0,0.063,0.002
23/02/2022,08:58:00,0.085,0.0,0.064,0.001
23/02/2022,08:59:01,0.086,0.0,0.066,0.002
23/02/2022,09:00:01,0.085,0.0,0.067,0.001
23/02/2022,09:01:09,0.085,0.0,0.069,0.002
23/02/2022,09:02:01,0.086,0.0,0.07,0.001
23/02/2022,09:03:01,0.085,0.0,0.071,0.001
23/02/2022,09:04:09,0.088,0.0,0.073,0.002
23/02/2022,09:05:01,0.092,0.0,0.074,0.001
23/02/2022,09:06:00,0.097,0.0,0.076,0.002
23/02/2022,09:07:00,0.100,0.0,0.077,0.001
23/02/2022,09:08:01,0.098,0.0,0.079,0.002
23/02/2022,09:09:00,0.101,0.0,0.081,0.002
23/02/2022,09:10:00,0.102,0.0,0.082,0.001
23/02/2022,09:11:00,0.108,0.0,0.084,0.002
23/02/2022,09:12:01,0.113,0.0,0.086,0.002
23/02/2022,09:13:01,0.116,0.0,0.088,0.002
23/02/2022,09:14:00,0.117,0.0,0.09,0.002
23/02/2022,09:15:09,0.123,0.0,0.092,0.002
23/02/2022,09:15:59,0.125,0.0,0.094,0.002
23/02/2022,09:17:01,0.123,0.0,0.096,0.002
23/02/2022,09:18:01,0.129,0.0,0.098,0.002
23/02/2022,09:19:01,0.132,0.0,0.1,0.002
23/02/2022,09:20:00,0.135,0.0,0.102,0.002
23/02/2022,09:21:00,0.146,0.0,0.105,0.003
23/02/2022,09:22:01,0.147,0.0,0.107,0.002
23/02/2022,09:23:01,0.154,0.0,0.11,0.003
23/02/2022,09:24:01,0.160,0.0,0.112,0.002
23/02/2022,09:25:09,0.165,0.0,0.115,0.003
23/02/2022,09:26:00,0.166,0.0,0.118,0.003
23/02/2022,09:27:00,0.174,0.0,0.121,0.003
23/02/2022,09:28:01,0.172,0.0,0.124,0.003
23/02/2022,09:29:01,0.153,0.0,0.126,0.002
23/02/2022,09:30:01,0.155,0.0,0.129,0.003
23/02/2022,09:31:00,0.164,0.0,0.132,0.003
23/02/2022,09:32:00,0.173,0.0,0.134,0.002
23/02/2022,09:33:09,0.186,0.0,0.138,0.004
23/02/2022,09:34:00,0.180,0.0,0.14,0.002
23/02/2022,09:35:01,0.180,0.0,0.143,0.003
23/02/2022,09:36:01,0.182,0.0,0.146,0.003
23/02/2022,09:37:00,0.186,0.0,0.149,0.003
23/02/2022,09:38:00,0.186,0.0,0.153,0.004
23/02/2022,09:39:01,0.186,0.0,0.156,0.003
23/02/2022,09:40:01,0.194,0.0,0.159,0.003
23/02/2022,09:41:01,0.197,0.0,0.162,0.003
23/02/2022,09:42:00,0.201,0.0,0.165,0.003
23/02/2022,09:43:00,0.206,0.0,0.169,0.004
23/02/2022,09:44:00,0.209,0.0,0.172,0.003
23/02/2022,09:45:01,0.209,0.0,0.176,0.004
23/02/2022,09:46:10,0.214,0.0,0.18,0.004
23/02/2022,09:47:00,0.221,1.0,0.183,0.003
23/02/2022,09:48:01,0.224,1.0,0.187,0.004
23/02/2022,09:49:01,0.223,1.0,0.19,0.003
23/02/2022,09:50:00,0.226,1.0,0.194,0.004
23/02/2022,09:51:00,0.223,1.0,0.198,0.004
23/02/2022,09:52:01,0.219,1.0,0.202,0.004
23/02/2022,09:53:01,0.219,1.0,0.205,0.003
23/02/2022,09:54:09,0.223,1.0,0.209,0.004
23/02/2022,09:55:01,0.232,1.0,0.213,0.004
23/02/2022,09:56:00,0.240,1.0,0.217,0.004
23/02/2022,09:57:01,0.246,1.0,0.221,0.004
23/02/2022,09:58:01,0.252,1.0,0.225,0.004
23/02/2022,09:59:00,0.256,1.0,0.229,0.004
23/02/2022,10:00:00,0.258,1.0,0.233,0.004
23/02/2022,10:01:00,0.292,1.0,0.238,0.005
23/02/2022,10:02:01,0.283,1.0,0.243,0.005
23/02/2022,10:03:01,0.254,1.0,0.247,0.004
23/02/2022,10:04:09,0.250,1.0,0.252,0.005
23/02/2022,10:05:01,0.249,1.0,0.256,0.004
23/02/2022,10:06:01,0.252,1.0,0.26,0.004
23/02/2022,10:07:01,0.251,1.0,0.264,0.004
23/02/2022,10:08:00,0.255,1.0,0.268,0.004
23/02/2022,10:09:00,0.253,1.0,0.272,0.004
23/02/2022,10:10:01,0.250,1.0,0.277,0.005
23/02/2022,10:11:01,0.250,1.0,0.281,0.004
23/02/2022,10:12:01,0.247,1.0,0.285,0.004
23/02/2022,10:13:01,0.248,1.0,0.289,0.004
23/02/2022,10:14:01,0.247,1.0,0.293,0.004
23/02/2022,10:15:01,0.243,1.0,0.297,0.004
23/02/2022,10:16:01,0.239,1.0,0.301,0.004
23/02/2022,10:17:01,0.243,1.0,0.305,0.004
23/02/2022,10:18:09,0.250,1.0,0.31,0.005
23/02/2022,10:19:01,0.252,1.0,0.313,0.003
23/02/2022,10:20:01,0.254,1.0,0.318,0.005
23/02/2022,10:21:00,0.257,1.0,0.322,0.004